Regional Weather Roundup
Issued by NWS

Home | Current Version | Previous Version | Text Only | Print | Product List | Glossary Off
Versions: 1 2 3 4 5 6 7 8 9 10 11 12 13 14 15 16 17 18 19 20 21 22 23 24 25 26 27 28 29 30 31 32 33 34 35 36 37 38 39 40 41 42 43 44 45 46 47 48 49 50

905
ASUS43 KMPX 070001
RWRMN
WEATHER ROUNDUP FOR MINNESOTA
NATIONAL WEATHER SERVICE TWIN CITIES/CHANHASSEN MN
600 PM CST SAT FEB 06 2016


NOTE: "FAIR" INDICATES FEW OR NO CLOUDS BELOW 12,000 FEET WITH NO
SIGNIFICANT WEATHER AND/OR OBSTRUCTIONS TO VISIBILITY. N/A MEANS
CURRENT SKY AND/OR WEATHER CONDITIONS ARE NOT AVAILABLE.

MNZ060>063-068>070-070100-
   Twin Cities Metro

CITY           SKY/WX    TMP DP  RH WIND       PRES   REMARKS
TWIN CITIES    CLOUDY    35  26  69 S15G21    29.86F WCI  25
6HR MIN TEMP:  33; 6HR MAX TEMP:  36;

ST PAUL        CLOUDY    34  27  75 S14       29.88F WCI  25
CRYSTAL        CLOUDY    35  26  69 S15       29.83F WCI  25
BLAINE         CLOUDY    37  28  70 S15G21    29.83F
LAKEVILLE      CLOUDY    32  28  86 S15G22    29.87F WCI  22
EDEN PRAIRIE   MOCLDY    35  27  72 S16       29.85F WCI  25
6HR MIN TEMP:  32; 6HR MAX TEMP:  35;

SOUTH ST PAUL  CLOUDY    34  28  76 S12G21    29.87F WCI  26
LAKE ELMO      MOCLDY    32  28  86 S17       29.88F WCI  21
$$
MNZ001>005-007-008-013>017-022>024-027-028-070100-
   Northwest Minnesota

CITY           SKY/WX    TMP DP  RH WIND       PRES   REMARKS
BEMIDJI        CLOUDY    35  26  71 S6        29.62F WCI  30
HALLOCK        CLOUDY    34  30  86 S14       29.52F WCI  24
ROSEAU         CLOUDY    34  28  80 S10       29.56F WCI  26
WARROAD        CLOUDY    30  28  93 SE7       29.58F WCI  23
THIEF RVR FALL CLOUDY    34  28  80 S15       29.59F WCI  24
CROOKSTON      CLOUDY    36  32  87 SW15      29.60F
FOSSTON        CLOUDY    34  28  80 S16       29.63R WCI  23
DETROIT LAKES  PTCLDY    36  32  87 SW12G18   29.68R
MOORHEAD       CLOUDY    37  34  87 SW12      29.69S
PARK RAPIDS    CLOUDY    36  27  69 S9        29.65F
MAHNOMEN       CLOUDY    34  30  87 S15       29.64R WCI  24
$$
MNZ006-009>011-018-025>026-070100-
   North Central Minnesota

CITY           SKY/WX    TMP DP  RH WIND       PRES   REMARKS
BAUDETTE       CLOUDY    31  28  89 SE8       29.60F WCI  23
FLAG ISLAND    LGT SNOW  28  27  93 SE10      29.58F WCI  19
INTL FALLS     LGT SNOW  30  28  92 SE7       29.65F VSB 3/4 WCI  23
6HR MIN TEMP:  26; 6HR MAX TEMP:  33; 6HR PCP:  0.05;

WASKISH        CLOUDY    34  27  75 SE3       29.62F
LONGVILLE      CLOUDY    36  27  69 S7        29.66F
GRAND RAPIDS   CLOUDY    34  25  69 S15       29.69F WCI  24
CRANE LAKE     CLOUDY    28  27  93 SE1       29.71F
ORR            LGT SNOW  30  27  86 S7        29.66S WCI  23
COOK           LGT SNOW  32  28  86 S7        29.70R WCI  26
WALKER         LGT RAIN  35  26  70 SW9G18    29.65F WCI  28
$$
MNZ012-019>021-037-070100-
   Northeast Minnesota

CITY           SKY/WX    TMP DP  RH WIND       PRES   REMARKS
DULUTH         CLOUDY    32  25  75 S13       29.74F WCI  22
6HR MIN TEMP:  28; 6HR MAX TEMP:  34;

ELY            LGT SNOW  28  27  93 S9        29.71F WCI  20
HIBBING        CLOUDY    32  24  72 S8        29.70S WCI  25
EVELETH        CLOUDY    32  27  80 S7        29.72S WCI  26
DULUTH HARBOR  CLOUDY    36  28  75 S10       29.78F
TWO HARBORS    CLOUDY    36  28  75 S6        29.75F
SILVER BAY     LGT SNOW  30  27  86 CALM      29.76F
GRAND MARAIS     N/A     29  23  78 N5        29.84F WCI  24
G MARAIS ARPRT CLOUDY    21  19  93 E3        29.78F FOG
$$
MNZ029>031-032-039>041-046>048-054>057-064-070100-
   West Central Minnesota

CITY           SKY/WX    TMP DP  RH WIND       PRES   REMARKS
FERGUS FALLS   CLOUDY    36  32  87 W13       29.77R
WHEATON        CLOUDY    37  34  87 SW17      29.78R
MORRIS         DRIZZLE   36  30  80 SW13      29.74F
ALEXANDRIA     MIX PCPN  34  30  85 SW16      29.73F WCI  24
ELBOW LAKE     CLOUDY    33  31  92 W14       29.72F WCI  23
WADENA         DRIZZLE   34  28  80 S9        29.68F WCI  26
GLENWOOD       MIX PCPN  34  30  86 SW12      29.76F WCI  25
APPLETON       CLOUDY    37  30  75 SW8       29.78S
BENSON         MIX PCPN  36  30  80 SW3       29.78F
ORTONVILLE     CLOUDY    36  28  75 SW7       29.77S
MADISON        CLOUDY    36  30  80 SW13      29.78F
WILLMAR        MIX PCPN  36  30  80 S5        29.80F
$$
MNZ033>034-036-042>043-049>051-058-059-070100-
   Central Minnesota

CITY           SKY/WX    TMP DP  RH WIND       PRES   REMARKS
ST CLOUD       CLOUDY    34  27  75 S10       29.78F WCI  26
6HR MIN TEMP:  30; 6HR MAX TEMP:  37;

SAUK CENTRE    DRIZZLE   35  29  80 SW13      29.76S WCI  26
PAYNESVILLE    LGT RAIN  35  29  79 S10       29.79S WCI  27
AITKIN         CLOUDY    37  25  60 S12       29.70F
PINE RIVER     CLOUDY    37  28  70 S7        29.72F
BRAINERD       CLOUDY    36  26  67 S13G21    29.71F
STAPLES        CLOUDY    36  27  69 S7        29.70F
LONG PRAIRIE   CLOUDY    34  28  80 S14       29.74F WCI  24
LITTLE FALLS   CLOUDY    36  27  69 S10       29.75F
LITCHFIELD     CLOUDY    36  30  80 S6        29.81F
BUFFALO        CLOUDY    34  27  74 S10G20    29.82F WCI  26
MAPLE LAKE     CLOUDY    35  29  79 S9        29.82S WCI  28
$$
MNZ037-044-045-052-053-070100-
   East Central Minnesota

CITY           SKY/WX    TMP DP  RH WIND       PRES   REMARKS
PRINCETON      CLOUDY    36  27  69 S12       29.80F
MORA           PTCLDY    34  27  75 S9        29.80F WCI  26
CAMBRIDGE      MOCLDY    36  25  64 S12       29.79F
RUSH CITY      CLOUDY    33  27  78 S13       29.81F WCI  24
MOOSE LAKE     CLOUDY    34  27  75 S9        29.74F WCI  26
HINCKLEY       CLOUDY    34  28  80 S12G18    29.79S WCI  25
CLOQUET        CLOUDY    34  25  69 S9G16     29.74F WCI  26
MCGREGOR       CLOUDY    34  27  75 S13       29.73F WCI  25
$$
MNZ071>073-080-081-089-090-097-098-070100-
   Southwest Minnesota

CITY           SKY/WX    TMP DP  RH WIND       PRES   REMARKS
MONTEVIDEO     CLOUDY    36  30  80 SW15      29.80F
GRANITE FALLS  RAIN      36  32  85 S10       29.83R
CANBY          CLOUDY    38  31  74 SW14      29.80F
MARSHALL       CLOUDY    35  27  72 SW21G30   29.81F WCI  24
REDWOOD FALLS  CLOUDY    36  28  73 SW17      29.82F
OLIVIA         RAIN      34  30  86 SW12      29.81S WCI  25
PIPESTONE        N/A     34  21  60 SW18      29.81F WCI  23
WINDOM         CLOUDY    36  27  69 S15       29.86S
WORTHINGTON    CLOUDY    34  25  69 SW22      29.87R WCI  22
JACKSON        CLOUDY    36  27  69 S16       29.87F
TRACY          CLOUDY    35  29  76 SW21G26   29.81F WCI  24
SLAYTON        CLOUDY    32  29  86 S20       29.84F WCI  21
$$
MNZ065>067-074>077-082>085-091>093-070100-
   South Central Minnesota

CITY           SKY/WX    TMP DP  RH WIND       PRES   REMARKS
MANKATO        CLOUDY    34  27  75 S18G24    29.88F WCI  23
NEW ULM        PTCLDY    36  27  69 S15       29.84F
ST JAMES       CLOUDY    36  30  80 S20       29.87F
FAIRMONT       CLOUDY    34  27  75 S21       29.88F WCI  22
GLENCOE        MOCLDY    35  31  87 S12G20    29.83F WCI  26
FARIBAULT      CLOUDY    34  28  80 S14       29.90F WCI  24
OWATONNA       CLOUDY    32  27  80 S15G23    29.92F WCI  22
WASECA         CLOUDY    32  28  86 S17       29.92F WCI  21
ALBERT LEA     CLOUDY    30  28  93 S15G21    29.93F WCI  19
$$
MNZ078>079-086>088-094>096-070100-
   Southeast Minnesota

CITY           SKY/WX    TMP DP  RH WIND       PRES   REMARKS
ROCHESTER      CLOUDY    27  25  92 S18       29.95F WCI  14
6HR MIN TEMP:  25; 6HR MAX TEMP:  28; 6HR PCP: TRACE;

RED WING       CLOUDY    34  27  75 S8        29.93F WCI  27
STANTON        CLOUDY    32  28  82 S15G21    29.89F WCI  22
DODGE CENTER   CLOUDY    28  27  93 S20       29.93F WCI  15
WINONA         CLOUDY    32  27  80 SE5       30.01F WCI  27
AUSTIN         CLOUDY    28  27  93 S16       29.95F FOG     WCI  17
PRESTON        CLOUDY    26  24  91 S16       29.99F WCI  14
$$
ABBREVIATIONS USED IN REMARKS
   TC - TEMPERATURES IN CELSIUS
  WCI - WIND CHILL INDEX
   HX - HEAT INDEX
  VSB - VISIBILITY
$$




USA.gov is the U.S. government's official web portal to all federal, state and local government web resources and services.